Time,TemperatureF,DewpointF,PressureIn,WindDirection,WindDirectionDegrees,WindSpeedMPH,WindSpeedGustMPH,Humidity,HourlyPrecipIn,Conditions,Clouds,dailyrainin,SolarRadiationWatts/m^2,SoftwareType,DateUTC
2013-04-05 00:02:00,62.0,44.7,29.59,ESE,110,9.2,9.2,53,0.00,CLR,FEW,0.00,0.0,WeatherDisplay:10.37,2013-04-04 22:02:00,
2013-04-05 00:07:00,61.9,44.6,29.59,SSE,156,9.2,9.2,53,0.00,CLR,FEW,0.00,0.0,WeatherDisplay:10.37,2013-04-04 22:07:00,
2013-04-05 00:12:00,61.8,44.5,29.59,SE,125,10.4,10.4,53,0.00,CLR,FEW,0.00,0.0,WeatherDisplay:10.37,2013-04-04 22:12:00,
2013-04-05 00:17:00,61.8,45.0,29.59,East,91,11.5,11.5,54,0.00,CLR,FEW,0.00,0.0,WeatherDisplay:10.37,2013-04-04 22:17:00,
2013-04-05 00:22:00,61.6,45.3,29.60,East,85,9.2,9.2,55,0.00,CLR,FEW,0.00,0.0,WeatherDisplay:10.37,2013-04-04 22:22:00,
2013-04-05 00:27:00,61.4,46.0,29.60,ESE,106,11.5,11.5,57,0.00,CLR,FEW,0.00,0.0,WeatherDisplay:10.37,2013-04-04 22:27:00,
2013-04-05 00:32:00,61.2,46.3,29.60,ESE,121,8.1,8.1,58,0.00,CLR,FEW,0.00,0.0,WeatherDisplay:10.37,2013-04-04 22:32:00,
2013-04-05 00:37:00,60.9,46.5,29.59,South,177,11.5,11.5,59,0.00,CLR,FEW,0.00,0.0,WeatherDisplay:10.37,2013-04-04 22:37:00,
2013-04-05 00:42:00,60.7,46.7,29.59,SSE,167,8.1,8.1,60,0.00,CLR,FEW,0.00,0.0,WeatherDisplay:10.37,2013-04-04 22:42:00,
2013-04-05 00:47:00,60.5,47.0,29.58,South,180,11.5,11.5,61,0.00,CLR,FEW,0.00,0.0,WeatherDisplay:10.37,2013-04-04 22:47:00,
2013-04-05 00:52:00,60.3,47.2,29.57,ESE,109,15.0,15.0,62,0.00,CLR,FEW,0.00,0.0,WeatherDisplay:10.37,2013-04-04 22:52:00,
2013-04-05 00:57:00,60.1,47.5,29.55,SE,142,15.0,15.0,63,0.00,CLR,FEW,0.00,0.0,WeatherDisplay:10.37,2013-04-04 22:57:00,
2013-04-05 01:03:00,59.9,47.3,29.55,ESE,115,11.5,11.5,63,0.00,CLR,FEW,0.00,0.0,WeatherDisplay:10.37,2013-04-04 23:03:00,
2013-04-05 01:08:00,59.9,47.3,29.56,NE,56,12.7,12.7,63,0.00,CLR,FEW,0.00,0.0,WeatherDisplay:10.37,2013-04-04 23:08:00,
2013-04-05 01:13:00,59.9,47.3,29.56,SSE,162,15.0,15.0,63,0.00,CLR,FEW,0.00,0.0,WeatherDisplay:10.37,2013-04-04 23:13:00,
2013-04-05 01:18:00,60.0,47.4,29.56,ENE,65,13.8,13.8,63,0.00,CLR,FEW,0.00,0.0,WeatherDisplay:10.37,2013-04-04 23:18:00,
2013-04-05 01:23:00,60.0,47.4,29.56,South,184,15.0,15.0,63,0.00,CLR,FEW,0.00,0.0,WeatherDisplay:10.37,2013-04-04 23:23:00,
2013-04-05 01:28:00,60.0,47.4,29.55,ESE,115,11.5,11.5,63,0.00,CLR,FEW,0.00,0.0,WeatherDisplay:10.37,2013-04-04 23:28:00,
2013-04-05 01:33:00,59.8,47.6,29.55,ESE,103,18.4,18.4,64,0.00,CLR,FEW,0.00,0.0,WeatherDisplay:10.37,2013-04-04 23:33:00,
2013-04-05 01:38:00,59.7,48.3,29.55,ESE,105,15.0,15.0,66,0.00,CLR,FEW,0.00,0.0,WeatherDisplay:10.37,2013-04-04 23:38:00,
2013-04-05 01:43:00,59.6,48.6,29.56,ESE,119,15.0,15.0,67,0.00,CLR,FEW,0.00,0.0,WeatherDisplay:10.37,2013-04-04 23:43:00,
2013-04-05 01:48:00,59.4,49.2,29.55,SE,137,26.5,26.5,69,0.00,CLR,FEW,0.00,0.0,WeatherDisplay:10.37,2013-04-04 23:48:00,
2013-04-05 01:53:00,59.1,49.3,29.56,SE,125,13.0,13.0,70,0.00,CLR,FEW,0.00,0.0,WeatherDisplay:10.37,2013-04-04 23:53:00,
2013-04-05 01:58:00,59.0,49.6,29.57,SSE,163,15.0,15.0,71,0.00,CLR,FEW,0.00,0.0,WeatherDisplay:10.37,2013-04-04 23:58:00,
2013-04-05 02:03:00,58.9,49.9,29.58,SE,139,11.5,11.5,72,0.00,CLR,FEW,0.00,0.0,WeatherDisplay:10.37,2013-04-05 00:03:00,
2013-04-05 02:09:00,58.6,50.3,29.57,East,82,13.8,13.8,74,0.00,CLR,FEW,0.00,0.0,WeatherDisplay:10.37,2013-04-05 00:09:00,
2013-04-05 02:14:00,58.2,50.7,29.56,ESE,103,17.3,17.3,76,0.00,CLR,FEW,0.00,0.0,WeatherDisplay:10.37,2013-04-05 00:14:00,
2013-04-05 02:19:00,57.8,51.0,29.56,East,91,11.5,11.5,78,0.00,CLR,FEW,0.00,0.0,WeatherDisplay:10.37,2013-04-05 00:19:00,
2013-04-05 02:24:00,57.5,51.4,29.56,ESE,107,18.4,18.4,80,0.00,CLR,FEW,0.00,0.0,WeatherDisplay:10.37,2013-04-05 00:24:00,
2013-04-05 02:30:00,57.3,51.5,29.56,SE,142,6.9,6.9,81,0.00,CLR,FEW,0.00,0.0,WeatherDisplay:10.37,2013-04-05 00:30:00,
2013-04-05 02:35:00,57.2,51.4,29.54,SE,143,11.5,11.5,81,0.00,CLR,FEW,0.00,0.0,WeatherDisplay:10.37,2013-04-05 00:35:00,
2013-04-05 02:40:00,57.0,51.6,29.53,East,84,17.3,17.3,82,0.00,CLR,FEW,0.00,0.0,WeatherDisplay:10.37,2013-04-05 00:40:00,
2013-04-05 02:45:00,57.0,51.6,29.51,ESE,113,19.6,19.6,82,0.00,CLR,FEW,0.00,0.0,WeatherDisplay:10.37,2013-04-05 00:45:00,
2013-04-05 02:50:00,57.0,51.6,29.51,South,176,18.4,18.4,82,0.00,CLR,FEW,0.00,0.0,WeatherDisplay:10.37,2013-04-05 00:50:00,
2013-04-05 02:55:00,57.0,51.6,29.51,ESE,105,24.2,24.2,82,0.00,CLR,FEW,0.00,0.0,WeatherDisplay:10.37,2013-04-05 00:55:00,
2013-04-05 03:00:00,57.2,51.8,29.51,ESE,112,18.4,18.4,82,0.01,RA,FEW,0.01,0.0,WeatherDisplay:10.37,2013-04-05 01:00:00,
2013-04-05 03:05:00,57.3,51.9,29.52,SE,138,21.9,21.9,82,0.01,RA,FEW,0.01,0.0,WeatherDisplay:10.37,2013-04-05 01:05:00,
2013-04-05 03:10:00,57.3,52.2,29.50,SSE,150,13.8,13.8,83,0.01,CLR,FEW,0.01,0.0,WeatherDisplay:10.37,2013-04-05 01:10:00,
2013-04-05 03:16:00,57.3,52.2,29.50,SW,226,18.4,18.4,83,0.01,CLR,FEW,0.01,0.0,WeatherDisplay:10.37,2013-04-05 01:16:00,
2013-04-05 03:21:00,57.4,52.3,29.47,ESE,111,11.5,11.5,83,0.01,CLR,FEW,0.01,0.0,WeatherDisplay:10.37,2013-04-05 01:21:00,
2013-04-05 03:26:00,57.2,52.4,29.49,SE,134,18.4,18.4,84,0.01,CLR,FEW,0.01,0.0,WeatherDisplay:10.37,2013-04-05 01:26:00,
2013-04-05 03:31:00,56.9,52.1,29.50,SE,136,20.7,20.7,84,0.01,CLR,FEW,0.01,0.0,WeatherDisplay:10.37,2013-04-05 01:31:00,
2013-04-05 03:36:00,56.7,52.2,29.51,SE,144,16.1,16.1,85,0.01,CLR,FEW,0.01,0.0,WeatherDisplay:10.37,2013-04-05 01:36:00,
2013-04-05 03:42:00,56.7,52.6,29.53,SSW,200,13.8,13.8,86,0.01,CLR,FEW,0.01,0.0,WeatherDisplay:10.37,2013-04-05 01:42:00,
2013-04-05 03:47:00,56.7,52.6,29.53,SSE,155,11.5,11.5,86,0.01,CLR,FEW,0.01,0.0,WeatherDisplay:10.37,2013-04-05 01:47:00,
2013-04-05 03:52:00,56.7,52.9,29.53,East,98,6.9,6.9,87,0.01,CLR,FEW,0.01,0.0,WeatherDisplay:10.37,2013-04-05 01:52:00,
2013-04-05 03:57:00,56.7,52.9,29.53,East,101,16.1,16.1,87,0.01,CLR,FEW,0.01,0.0,WeatherDisplay:10.37,2013-04-05 01:57:00,
2013-04-05 04:02:00,56.7,53.2,29.53,SSE,166,8.1,8.1,88,0.00,CLR,FEW,0.01,0.0,WeatherDisplay:10.37,2013-04-05 02:02:00,
2013-04-05 04:08:00,56.7,53.2,29.53,SE,144,11.5,11.5,88,0.00,CLR,FEW,0.01,0.0,WeatherDisplay:10.37,2013-04-05 02:08:00,
2013-04-05 04:13:00,56.7,53.5,29.54,SE,144,15.0,15.0,89,0.00,CLR,FEW,0.01,0.0,WeatherDisplay:10.37,2013-04-05 02:13:00,
2013-04-05 04:18:00,56.7,53.5,29.54,ENE,57,3.5,3.5,89,0.00,CLR,FEW,0.01,0.0,WeatherDisplay:10.37,2013-04-05 02:18:00,
2013-04-05 04:23:00,56.7,53.5,29.54,North,5,9.2,9.2,89,0.00,CLR,FEW,0.01,0.0,WeatherDisplay:10.37,2013-04-05 02:23:00,
2013-04-05 04:28:00,56.7,53.5,29.54,West,260,8.1,8.1,89,0.00,CLR,FEW,0.01,0.0,WeatherDisplay:10.37,2013-04-05 02:28:00,
2013-04-05 04:33:00,56.6,53.7,29.54,West,271,8.1,8.1,90,0.00,CLR,FEW,0.01,0.0,WeatherDisplay:10.37,2013-04-05 02:33:00,
2013-04-05 04:38:00,56.5,53.6,29.54,WSW,250,8.1,8.1,90,0.00,CLR,FEW,0.01,0.0,WeatherDisplay:10.37,2013-04-05 02:38:00,
2013-04-05 04:43:00,56.3,53.4,29.54,ESE,110,3.5,3.5,90,0.00,CLR,FEW,0.01,0.0,WeatherDisplay:10.37,2013-04-05 02:43:00,
2013-04-05 04:49:00,56.2,53.3,29.54,ENE,66,2.3,2.3,90,0.00,CLR,FEW,0.01,0.0,WeatherDisplay:10.37,2013-04-05 02:49:00,
2013-04-05 04:55:00,56.1,53.2,29.54,ENE,65,2.0,2.0,90,0.00,CLR,FEW,0.01,0.0,WeatherDisplay:10.37,2013-04-05 02:55:00,
2013-04-05 04:59:00,56.0,53.1,29.53,ENE,65,3.5,3.5,90,0.00,CLR,FEW,0.01,0.0,WeatherDisplay:10.37,2013-04-05 02:59:00,
2013-04-05 05:04:00,56.0,53.1,29.53,NNW,346,3.5,3.5,90,0.00,CLR,FEW,0.01,0.0,WeatherDisplay:10.37,2013-04-05 03:04:00,
2013-04-05 05:09:00,56.0,53.4,29.53,ENE,61,3.5,3.5,91,0.00,CLR,FEW,0.01,0.0,WeatherDisplay:10.37,2013-04-05 03:09:00,
2013-04-05 05:14:00,56.0,53.4,29.53,East,101,6.0,6.0,91,0.00,CLR,FEW,0.01,0.0,WeatherDisplay:10.37,2013-04-05 03:14:00,
2013-04-05 05:19:00,55.9,53.3,29.53,SE,144,4.6,4.6,91,0.00,CLR,FEW,0.01,0.0,WeatherDisplay:10.37,2013-04-05 03:19:00,
2013-04-05 05:24:00,55.9,53.3,29.53,East,86,2.0,2.0,91,0.00,CLR,FEW,0.01,0.0,WeatherDisplay:10.37,2013-04-05 03:24:00,
2013-04-05 05:29:00,56.0,53.4,29.54,West,263,4.6,4.6,91,0.00,CLR,FEW,0.01,0.0,WeatherDisplay:10.37,2013-04-05 03:29:00,
2013-04-05 05:34:00,56.0,53.4,29.54,WSW,244,9.2,9.2,91,0.00,CLR,FEW,0.01,0.0,WeatherDisplay:10.37,2013-04-05 03:34:00,
2013-04-05 05:40:00,56.0,53.4,29.54,WSW,250,5.8,5.8,91,0.00,CLR,FEW,0.01,0.0,WeatherDisplay:10.37,2013-04-05 03:40:00,
2013-04-05 05:45:00,55.9,53.3,29.54,SSW,198,4.6,4.6,91,0.00,CLR,FEW,0.01,0.0,WeatherDisplay:10.37,2013-04-05 03:45:00,
2013-04-05 05:50:00,55.8,53.2,29.54,SW,234,6.9,6.9,91,0.00,CLR,FEW,0.01,0.0,WeatherDisplay:10.37,2013-04-05 03:50:00,
2013-04-05 05:55:00,55.7,53.4,29.55,SW,224,6.0,6.0,92,0.00,CLR,FEW,0.01,0.0,WeatherDisplay:10.37,2013-04-05 03:55:00,
2013-04-05 06:00:00,55.7,53.4,29.55,SW,224,4.6,4.6,92,0.00,CLR,FEW,0.01,0.0,WeatherDisplay:10.37,2013-04-05 04:00:00,
2013-04-05 06:05:00,55.6,53.3,29.55,SW,221,5.8,5.8,92,0.00,CLR,FEW,0.01,0.0,WeatherDisplay:10.37,2013-04-05 04:05:00,
2013-04-05 06:10:00,55.6,53.3,29.55,SSW,196,5.8,5.8,92,0.00,OVC,FEW,0.01,0.0,WeatherDisplay:10.37,2013-04-05 04:10:00,
2013-04-05 06:15:00,55.5,53.2,29.55,SW,227,6.0,6.0,92,0.00,OVC,FEW,0.01,0.0,WeatherDisplay:10.37,2013-04-05 04:15:00,
2013-04-05 06:20:00,55.3,53.0,29.55,SW,221,4.6,4.6,92,0.00,OVC,FEW,0.01,0.0,WeatherDisplay:10.37,2013-04-05 04:20:00,
2013-04-05 06:25:00,55.0,52.7,29.56,WSW,252,6.0,6.0,92,0.00,OVC,FEW,0.01,0.0,WeatherDisplay:10.37,2013-04-05 04:25:00,
2013-04-05 06:30:00,54.9,52.6,29.56,SW,229,8.1,8.1,92,0.00,OVC,FEW,0.01,0.0,WeatherDisplay:10.37,2013-04-05 04:30:00,
2013-04-05 06:35:00,54.9,52.6,29.56,WSW,242,5.8,5.8,92,0.00,OVC,FEW,0.01,0.0,WeatherDisplay:10.37,2013-04-05 04:35:00,
2013-04-05 06:40:00,54.9,52.6,29.56,WSW,254,7.0,7.0,92,0.00,OVC,FEW,0.01,0.0,WeatherDisplay:10.37,2013-04-05 04:40:00,
2013-04-05 06:45:00,54.9,52.6,29.57,SW,224,8.1,8.1,92,0.00,OVC,FEW,0.01,0.0,WeatherDisplay:10.37,2013-04-05 04:45:00,
2013-04-05 06:52:00,54.9,52.6,29.57,WSW,254,5.8,5.8,92,0.00,OVC,FEW,0.01,0.0,WeatherDisplay:10.37,2013-04-05 04:52:00,
2013-04-05 06:57:00,54.8,52.8,29.57,WSW,252,3.5,3.5,93,0.00,OVC,FEW,0.01,0.0,WeatherDisplay:10.37,2013-04-05 04:57:00,
2013-04-05 07:02:00,54.7,52.7,29.57,SW,222,5.8,5.8,93,0.00,OVC,FEW,0.01,0.0,WeatherDisplay:10.37,2013-04-05 05:02:00,
2013-04-05 07:07:00,54.7,52.7,29.57,SW,232,5.8,5.8,93,0.00,OVC,FEW,0.01,0.0,WeatherDisplay:10.37,2013-04-05 05:07:00,
2013-04-05 07:13:00,54.7,52.7,29.57,WSW,242,5.8,5.8,93,0.00,OVC,FEW,0.01,0.0,WeatherDisplay:10.37,2013-04-05 05:13:00,
2013-04-05 07:18:00,54.7,52.7,29.58,West,259,8.1,8.1,93,0.00,OVC,FEW,0.01,0.0,WeatherDisplay:10.37,2013-04-05 05:18:00,
2013-04-05 07:23:00,54.8,52.8,29.58,West,259,5.8,5.8,93,0.00,OVC,FEW,0.01,0.0,WeatherDisplay:10.37,2013-04-05 05:23:00,
2013-04-05 07:28:00,54.8,52.8,29.58,SW,233,6.9,6.9,93,0.00,OVC,FEW,0.01,0.0,WeatherDisplay:10.37,2013-04-05 05:28:00,
2013-04-05 07:33:00,54.8,52.8,29.58,WSW,245,8.1,8.1,93,0.00,OVC,FEW,0.01,0.0,WeatherDisplay:10.37,2013-04-05 05:33:00,
2013-04-05 07:38:00,54.8,52.8,29.58,SSW,202,3.5,3.5,93,0.00,OVC,FEW,0.01,0.0,WeatherDisplay:10.37,2013-04-05 05:38:00,
2013-04-05 07:43:00,54.9,52.9,29.58,WSW,238,8.1,8.1,93,0.00,OVC,FEW,0.01,0.0,WeatherDisplay:10.37,2013-04-05 05:43:00,
2013-04-05 07:48:00,55.0,53.0,29.59,WSW,241,6.9,6.9,93,0.00,OVC,FEW,0.01,0.0,WeatherDisplay:10.37,2013-04-05 05:48:00,
2013-04-05 07:53:00,55.0,53.0,29.59,West,260,6.9,6.9,93,0.00,OVC,FEW,0.01,0.0,WeatherDisplay:10.37,2013-04-05 05:53:00,
2013-04-05 07:58:00,55.1,53.1,29.59,WSW,242,5.8,5.8,93,0.00,OVC,FEW,0.01,0.0,WeatherDisplay:10.37,2013-04-05 05:58:00,
2013-04-05 08:03:00,55.2,53.2,29.60,SW,217,6.9,6.9,93,0.00,OVC,FEW,0.01,0.0,WeatherDisplay:10.37,2013-04-05 06:03:00,
2013-04-05 08:08:00,55.3,53.3,29.60,SW,225,6.9,6.9,93,0.00,OVC,FEW,0.01,0.0,WeatherDisplay:10.37,2013-04-05 06:08:00,
2013-04-05 08:13:00,55.4,53.4,29.60,SW,235,3.5,3.5,93,0.00,OVC,FEW,0.01,0.0,WeatherDisplay:10.37,2013-04-05 06:13:00,
2013-04-05 08:18:00,55.7,53.7,29.60,WSW,255,4.6,4.6,93,0.00,OVC,FEW,0.01,0.0,WeatherDisplay:10.37,2013-04-05 06:18:00,
2013-04-05 08:24:00,56.1,54.1,29.60,West,271,6.9,6.9,93,0.00,OVC,FEW,0.01,0.0,WeatherDisplay:10.37,2013-04-05 06:24:00,
2013-04-05 08:29:00,56.2,53.9,29.60,WSW,242,7.0,7.0,92,0.00,OVC,FEW,0.01,0.0,WeatherDisplay:10.37,2013-04-05 06:29:00,
2013-04-05 08:34:00,56.0,53.7,29.60,WSW,240,6.9,6.9,92,0.00,OVC,FEW,0.01,0.0,WeatherDisplay:10.37,2013-04-05 06:34:00,
2013-04-05 08:39:00,56.1,53.8,29.60,West,261,8.1,8.1,92,0.00,OVC,FEW,0.01,0.0,WeatherDisplay:10.37,2013-04-05 06:39:00,
2013-04-05 08:44:00,56.4,54.1,29.61,WNW,293,8.1,8.1,92,0.00,OVC,FEW,0.01,0.0,WeatherDisplay:10.37,2013-04-05 06:44:00,
2013-04-05 08:49:00,56.7,54.1,29.61,WSW,255,10.4,10.4,91,0.00,OVC,FEW,0.01,0.0,WeatherDisplay:10.37,2013-04-05 06:49:00,
2013-04-05 08:54:00,56.9,54.3,29.61,West,261,6.9,6.9,91,0.00,OVC,FEW,0.01,0.0,WeatherDisplay:10.37,2013-04-05 06:54:00,
2013-04-05 08:59:00,57.7,54.8,29.61,SW,234,10.4,10.4,90,0.00,OVC,FEW,0.01,0.0,WeatherDisplay:10.37,2013-04-05 06:59:00,
2013-04-05 09:05:00,57.9,54.7,29.61,WSW,246,8.1,8.1,89,0.00,OVC,FEW,0.01,0.0,WeatherDisplay:10.37,2013-04-05 07:05:00,
2013-04-05 09:10:00,58.3,55.1,29.61,West,261,4.0,4.0,89,0.00,OVC,FEW,0.01,0.0,WeatherDisplay:10.37,2013-04-05 07:10:00,
2013-04-05 09:15:00,58.8,54.9,29.61,WNW,300,6.9,6.9,87,0.00,OVC,FEW,0.01,0.0,WeatherDisplay:10.37,2013-04-05 07:15:00,
2013-04-05 09:20:00,59.2,55.0,29.62,West,281,3.5,3.5,86,0.00,OVC,FEW,0.01,0.0,WeatherDisplay:10.37,2013-04-05 07:20:00,
2013-04-05 09:25:00,59.9,55.1,29.62,WSW,256,4.6,4.6,84,0.00,OVC,FEW,0.01,0.0,WeatherDisplay:10.37,2013-04-05 07:25:00,
2013-04-05 09:30:00,60.4,55.2,29.62,WNW,290,4.6,4.6,83,0.00,OVC,FEW,0.01,0.0,WeatherDisplay:10.37,2013-04-05 07:30:00,
2013-04-05 09:35:00,60.6,54.7,29.62,West,262,6.9,6.9,81,0.00,OVC,FEW,0.01,0.0,WeatherDisplay:10.37,2013-04-05 07:35:00,
2013-04-05 09:40:00,60.6,54.4,29.62,WSW,237,9.0,9.0,80,0.00,OVC,FEW,0.01,0.0,WeatherDisplay:10.37,2013-04-05 07:40:00,
2013-04-05 09:45:00,60.3,53.8,29.63,WSW,240,5.8,5.8,79,0.00,OVC,FEW,0.01,0.0,WeatherDisplay:10.37,2013-04-05 07:45:00,
2013-04-05 09:50:00,60.2,54.0,29.63,WSW,250,6.9,6.9,80,0.00,OVC,FEW,0.01,0.0,WeatherDisplay:10.37,2013-04-05 07:50:00,
2013-04-05 09:55:00,60.1,53.6,29.64,West,264,10.4,10.4,79,0.00,OVC,FEW,0.01,0.0,WeatherDisplay:10.37,2013-04-05 07:55:00,
2013-04-05 10:00:00,60.1,53.9,29.64,WSW,251,6.9,6.9,80,0.00,OVC,FEW,0.01,0.0,WeatherDisplay:10.37,2013-04-05 08:00:00,
2013-04-05 10:05:00,59.9,53.7,29.64,SW,236,9.2,9.2,80,0.00,OVC,FEW,0.01,0.0,WeatherDisplay:10.37,2013-04-05 08:05:00,
2013-04-05 10:10:00,60.0,54.2,29.64,West,277,7.0,7.0,81,0.00,OVC,FEW,0.01,0.0,WeatherDisplay:10.37,2013-04-05 08:10:00,
2013-04-05 10:15:00,60.1,53.9,29.64,WSW,252,8.1,8.1,80,0.00,OVC,FEW,0.01,0.0,WeatherDisplay:10.37,2013-04-05 08:15:00,
2013-04-05 10:21:00,60.6,54.0,29.64,SW,218,5.8,5.8,79,0.00,OVC,FEW,0.01,0.0,WeatherDisplay:10.37,2013-04-05 08:21:00,
2013-04-05 10:26:00,60.7,53.8,29.64,SW,219,11.5,11.5,78,0.00,OVC,FEW,0.01,0.0,WeatherDisplay:10.37,2013-04-05 08:26:00,
2013-04-05 10:31:00,60.9,54.3,29.65,WSW,239,11.5,11.5,79,0.00,OVC,FEW,0.01,0.0,WeatherDisplay:10.37,2013-04-05 08:31:00,
2013-04-05 10:36:00,61.0,54.4,29.65,WNW,284,8.1,8.1,79,0.00,OVC,FEW,0.01,0.0,WeatherDisplay:10.37,2013-04-05 08:36:00,
2013-04-05 10:42:00,61.4,54.8,29.65,WNW,298,6.9,6.9,79,0.00,OVC,FEW,0.01,0.0,WeatherDisplay:10.37,2013-04-05 08:42:00,
2013-04-05 10:47:00,61.4,54.5,29.65,WNW,289,9.2,9.2,78,0.00,OVC,FEW,0.01,0.0,WeatherDisplay:10.37,2013-04-05 08:47:00,
2013-04-05 10:53:00,61.7,54.8,29.66,West,272,8.1,8.1,78,0.00,OVC,FEW,0.01,0.0,WeatherDisplay:10.37,2013-04-05 08:53:00,
2013-04-05 10:58:00,61.8,54.9,29.66,West,262,8.1,8.1,78,0.00,OVC,FEW,0.01,0.0,WeatherDisplay:10.37,2013-04-05 08:58:00,
2013-04-05 11:03:00,62.0,54.7,29.66,WSW,246,8.1,8.1,77,0.00,OVC,FEW,0.01,0.0,WeatherDisplay:10.37,2013-04-05 09:03:00,
2013-04-05 11:08:00,62.3,55.0,29.66,WSW,246,9.2,9.2,77,0.00,OVC,FEW,0.01,0.0,WeatherDisplay:10.37,2013-04-05 09:08:00,
2013-04-05 11:13:00,62.2,54.2,29.66,West,275,6.9,6.9,75,0.00,OVC,FEW,0.01,0.0,WeatherDisplay:10.37,2013-04-05 09:13:00,
2013-04-05 11:18:00,62.2,54.5,29.66,West,262,6.9,6.9,76,0.00,OVC,FEW,0.01,0.0,WeatherDisplay:10.37,2013-04-05 09:18:00,
2013-04-05 11:23:00,62.3,55.0,29.66,WSW,250,11.5,11.5,77,0.00,OVC,FEW,0.01,0.0,WeatherDisplay:10.37,2013-04-05 09:23:00,
2013-04-05 11:28:00,62.1,54.4,29.66,NW,304,13.8,13.8,76,0.00,OVC,FEW,0.01,0.0,WeatherDisplay:10.37,2013-04-05 09:28:00,
2013-04-05 11:33:00,62.3,55.0,29.66,SW,225,6.9,6.9,77,0.00,OVC,FEW,0.01,0.0,WeatherDisplay:10.37,2013-04-05 09:33:00,
2013-04-05 11:38:00,62.4,54.7,29.66,WNW,298,10.4,10.4,76,0.00,OVC,FEW,0.01,0.0,WeatherDisplay:10.37,2013-04-05 09:38:00,
2013-04-05 11:43:00,62.4,54.7,29.66,West,277,11.5,11.5,76,0.00,OVC,FEW,0.01,0.0,WeatherDisplay:10.37,2013-04-05 09:43:00,
2013-04-05 11:48:00,62.3,54.6,29.66,WNW,288,12.7,12.7,76,0.00,OVC,FEW,0.01,0.0,WeatherDisplay:10.37,2013-04-05 09:48:00,
2013-04-05 11:53:00,62.1,54.4,29.67,West,269,11.5,11.5,76,0.00,OVC,FEW,0.01,0.0,WeatherDisplay:10.37,2013-04-05 09:53:00,
2013-04-05 11:58:00,62.2,54.5,29.66,West,265,8.1,8.1,76,0.00,OVC,FEW,0.01,0.0,WeatherDisplay:10.37,2013-04-05 09:58:00,
2013-04-05 12:03:00,62.8,55.1,29.67,West,274,8.1,8.1,76,0.00,OVC,FEW,0.01,0.0,WeatherDisplay:10.37,2013-04-05 10:03:00,
2013-04-05 12:09:00,62.5,55.2,29.67,WNW,285,10.4,10.4,77,0.00,OVC,FEW,0.01,0.0,WeatherDisplay:10.37,2013-04-05 10:09:00,
2013-04-05 12:14:00,62.5,55.2,29.67,WNW,288,11.5,11.5,77,0.00,OVC,FEW,0.01,0.0,WeatherDisplay:10.37,2013-04-05 10:14:00,
2013-04-05 12:19:00,62.3,55.0,29.67,WNW,302,11.5,11.5,77,0.00,OVC,FEW,0.01,0.0,WeatherDisplay:10.37,2013-04-05 10:19:00,
2013-04-05 12:24:00,62.1,54.8,29.67,WSW,255,8.0,8.0,77,0.00,OVC,FEW,0.01,0.0,WeatherDisplay:10.37,2013-04-05 10:24:00,
2013-04-05 12:30:00,61.9,55.0,29.67,WSW,240,11.5,11.5,78,0.00,OVC,FEW,0.01,0.0,WeatherDisplay:10.37,2013-04-05 10:30:00,
2013-04-05 12:35:00,61.7,55.1,29.67,WSW,250,11.5,11.5,79,0.00,OVC,FEW,0.01,0.0,WeatherDisplay:10.37,2013-04-05 10:35:00,
2013-04-05 12:40:00,61.6,55.0,29.67,West,276,11.5,11.5,79,0.00,OVC,FEW,0.01,0.0,WeatherDisplay:10.37,2013-04-05 10:40:00,
2013-04-05 12:45:00,62.0,55.4,29.68,NW,319,8.0,8.0,79,0.00,OVC,FEW,0.01,0.0,WeatherDisplay:10.37,2013-04-05 10:45:00,
2013-04-05 12:50:00,62.0,55.4,29.68,West,268,9.2,9.2,79,0.00,OVC,FEW,0.01,0.0,WeatherDisplay:10.37,2013-04-05 10:50:00,
2013-04-05 12:55:00,62.5,55.9,29.68,WSW,244,10.0,10.0,79,0.00,OVC,FEW,0.01,0.0,WeatherDisplay:10.37,2013-04-05 10:55:00,
2013-04-05 13:00:00,62.5,55.5,29.68,West,275,11.5,11.5,78,0.00,OVC,FEW,0.01,0.0,WeatherDisplay:10.37,2013-04-05 11:00:00,
2013-04-05 13:05:00,62.4,55.4,29.68,WNW,286,11.5,11.5,78,0.00,OVC,FEW,0.01,0.0,WeatherDisplay:10.37,2013-04-05 11:05:00,
2013-04-05 13:10:00,62.6,55.6,29.68,WNW,292,8.1,8.1,78,0.00,OVC,FEW,0.01,0.0,WeatherDisplay:10.37,2013-04-05 11:10:00,
2013-04-05 13:15:00,62.5,55.5,29.68,WNW,294,9.2,9.2,78,0.00,OVC,FEW,0.01,0.0,WeatherDisplay:10.37,2013-04-05 11:15:00,
2013-04-05 13:20:00,62.2,55.3,29.68,West,273,11.5,11.5,78,0.00,OVC,FEW,0.01,0.0,WeatherDisplay:10.37,2013-04-05 11:20:00,
2013-04-05 13:25:00,62.2,55.6,29.68,West,279,10.4,10.4,79,0.00,OVC,FEW,0.01,0.0,WeatherDisplay:10.37,2013-04-05 11:25:00,
2013-04-05 13:30:00,62.0,55.4,29.68,WNW,286,6.9,6.9,79,0.00,OVC,FEW,0.01,0.0,WeatherDisplay:10.37,2013-04-05 11:30:00,
2013-04-05 13:36:00,61.7,55.5,29.69,West,278,6.9,6.9,80,0.00,OVC,FEW,0.01,0.0,WeatherDisplay:10.37,2013-04-05 11:36:00,
2013-04-05 13:41:00,61.6,55.4,29.69,West,267,3.0,12.0,80,0.00,OVC,FEW,0.01,0.0,WeatherDisplay:10.37,2013-04-05 11:41:00,
2013-04-05 13:46:00,61.5,55.6,29.69,West,267,7.0,7.0,81,0.00,OVC,FEW,0.01,0.0,WeatherDisplay:10.37,2013-04-05 11:46:00,
2013-04-05 13:52:00,61.4,55.2,29.69,WNW,296,11.5,11.5,80,0.00,OVC,FEW,0.01,0.0,WeatherDisplay:10.37,2013-04-05 11:52:00,
2013-04-05 13:57:00,61.8,55.6,29.69,NW,309,7.0,7.0,80,0.00,OVC,FEW,0.01,0.0,WeatherDisplay:10.37,2013-04-05 11:57:00,
2013-04-05 14:02:00,61.8,55.2,29.70,WSW,250,11.5,11.5,79,0.00,OVC,FEW,0.01,0.0,WeatherDisplay:10.37,2013-04-05 12:02:00,
2013-04-05 14:08:00,61.5,54.9,29.70,WNW,292,11.5,11.5,79,0.00,OVC,FEW,0.01,0.0,WeatherDisplay:10.37,2013-04-05 12:08:00,
2013-04-05 14:13:00,61.9,55.3,29.70,West,273,9.2,9.2,79,0.00,OVC,FEW,0.01,0.0,WeatherDisplay:10.37,2013-04-05 12:13:00,
2013-04-05 14:18:00,61.8,55.2,29.70,NW,314,15.0,15.0,79,0.00,OVC,FEW,0.01,0.0,WeatherDisplay:10.37,2013-04-05 12:18:00,
2013-04-05 14:23:00,61.6,55.0,29.70,NNW,343,11.5,11.5,79,0.00,OVC,FEW,0.01,0.0,WeatherDisplay:10.37,2013-04-05 12:23:00,
2013-04-05 14:28:00,61.7,54.8,29.70,SW,236,10.4,10.4,78,0.00,OVC,FEW,0.01,0.0,WeatherDisplay:10.37,2013-04-05 12:28:00,
2013-04-05 14:33:00,61.3,54.7,29.70,WNW,284,11.5,11.5,79,0.00,OVC,FEW,0.01,0.0,WeatherDisplay:10.37,2013-04-05 12:33:00,
2013-04-05 14:38:00,61.4,54.5,29.70,WSW,257,12.0,12.0,78,0.00,OVC,FEW,0.01,0.0,WeatherDisplay:10.37,2013-04-05 12:38:00,
2013-04-05 14:43:00,61.4,54.8,29.71,West,276,10.4,10.4,79,0.00,OVC,FEW,0.01,0.0,WeatherDisplay:10.37,2013-04-05 12:43:00,
2013-04-05 14:48:00,61.5,54.6,29.70,WNW,287,11.5,11.5,78,0.00,OVC,FEW,0.01,0.0,WeatherDisplay:10.37,2013-04-05 12:48:00,
2013-04-05 14:53:00,61.8,54.9,29.71,West,277,8.1,8.1,78,0.00,OVC,FEW,0.01,0.0,WeatherDisplay:10.37,2013-04-05 12:53:00,
2013-04-05 14:58:00,61.8,54.9,29.71,WSW,248,10.4,10.4,78,0.00,OVC,FEW,0.01,0.0,WeatherDisplay:10.37,2013-04-05 12:58:00,
2013-04-05 15:03:00,61.7,55.1,29.71,WNW,293,11.5,11.5,79,0.00,OVC,FEW,0.01,0.0,WeatherDisplay:10.37,2013-04-05 13:03:00,
2013-04-05 15:08:00,61.7,54.8,29.71,WSW,238,9.2,9.2,78,0.00,OVC,FEW,0.01,0.0,WeatherDisplay:10.37,2013-04-05 13:08:00,
2013-04-05 15:13:00,61.8,55.2,29.71,West,271,10.4,10.4,79,0.00,OVC,FEW,0.01,0.0,WeatherDisplay:10.37,2013-04-05 13:13:00,
2013-04-05 15:18:00,61.9,55.3,29.71,West,267,11.5,11.5,79,0.00,OVC,FEW,0.01,0.0,WeatherDisplay:10.37,2013-04-05 13:18:00,
2013-04-05 15:24:00,62.1,55.5,29.71,West,268,10.4,10.4,79,0.00,OVC,FEW,0.01,0.0,WeatherDisplay:10.37,2013-04-05 13:24:00,
2013-04-05 15:29:00,61.9,55.3,29.71,West,276,8.1,8.1,79,0.00,OVC,FEW,0.01,0.0,WeatherDisplay:10.37,2013-04-05 13:29:00,
2013-04-05 15:34:00,61.6,55.0,29.71,NNW,327,11.5,11.5,79,0.00,OVC,FEW,0.01,0.0,WeatherDisplay:10.37,2013-04-05 13:34:00,
2013-04-05 15:39:00,61.5,54.9,29.72,WSW,254,11.5,11.5,79,0.00,OVC,FEW,0.01,0.0,WeatherDisplay:10.37,2013-04-05 13:39:00,
2013-04-05 15:44:00,61.1,54.5,29.71,WNW,286,8.1,8.1,79,0.00,OVC,FEW,0.01,0.0,WeatherDisplay:10.37,2013-04-05 13:44:00,
2013-04-05 15:49:00,60.7,54.5,29.71,West,269,6.0,6.0,80,0.00,OVC,FEW,0.01,0.0,WeatherDisplay:10.37,2013-04-05 13:49:00,
2013-04-05 15:54:00,60.6,54.7,29.71,WSW,244,8.1,8.1,81,0.00,OVC,FEW,0.01,0.0,WeatherDisplay:10.37,2013-04-05 13:54:00,
2013-04-05 16:00:00,61.1,55.2,29.71,WNW,293,8.1,8.1,81,0.00,OVC,FEW,0.01,0.0,WeatherDisplay:10.37,2013-04-05 14:00:00,
2013-04-05 16:05:00,61.3,55.1,29.71,West,261,7.0,7.0,80,0.00,OVC,FEW,0.01,0.0,WeatherDisplay:10.37,2013-04-05 14:05:00,
2013-04-05 16:10:00,61.4,55.2,29.71,West,266,5.8,5.8,80,0.00,OVC,FEW,0.01,0.0,WeatherDisplay:10.37,2013-04-05 14:10:00,
2013-04-05 16:15:00,61.4,54.8,29.71,West,263,11.5,11.5,79,0.00,OVC,FEW,0.01,0.0,WeatherDisplay:10.37,2013-04-05 14:15:00,
2013-04-05 16:20:00,61.3,54.7,29.72,WSW,244,8.1,8.1,79,0.00,OVC,FEW,0.01,0.0,WeatherDisplay:10.37,2013-04-05 14:20:00,
2013-04-05 16:25:00,61.2,55.0,29.72,WNW,282,8.1,8.1,80,0.00,OVC,FEW,0.01,0.0,WeatherDisplay:10.37,2013-04-05 14:25:00,
2013-04-05 16:30:00,61.0,54.8,29.72,NW,305,8.1,8.1,80,0.00,OVC,FEW,0.01,0.0,WeatherDisplay:10.37,2013-04-05 14:30:00,
2013-04-05 16:35:00,61.3,55.1,29.72,West,275,9.2,9.2,80,0.00,OVC,FEW,0.01,0.0,WeatherDisplay:10.37,2013-04-05 14:35:00,
2013-04-05 16:40:00,61.4,55.2,29.72,SW,236,8.1,8.1,80,0.00,OVC,FEW,0.01,0.0,WeatherDisplay:10.37,2013-04-05 14:40:00,
2013-04-05 16:45:00,61.1,54.5,29.72,West,277,9.2,9.2,79,0.00,OVC,FEW,0.01,0.0,WeatherDisplay:10.37,2013-04-05 14:45:00,
2013-04-05 16:50:00,61.0,54.4,29.72,WSW,252,6.9,6.9,79,0.00,OVC,FEW,0.01,0.0,WeatherDisplay:10.37,2013-04-05 14:50:00,
2013-04-05 16:55:00,61.3,55.1,29.72,West,279,6.9,6.9,80,0.00,OVC,FEW,0.01,0.0,WeatherDisplay:10.37,2013-04-05 14:55:00,
2013-04-05 17:00:00,61.2,54.6,29.72,West,273,6.9,6.9,79,0.00,OVC,FEW,0.01,0.0,WeatherDisplay:10.37,2013-04-05 15:00:00,
2013-04-05 17:05:00,60.8,54.6,29.72,West,273,8.1,8.1,80,0.00,OVC,FEW,0.01,0.0,WeatherDisplay:10.37,2013-04-05 15:05:00,
2013-04-05 17:10:00,60.6,54.4,29.72,West,263,6.0,6.0,80,0.00,OVC,FEW,0.01,0.0,WeatherDisplay:10.37,2013-04-05 15:10:00,
2013-04-05 17:15:00,60.7,54.5,29.72,WNW,288,9.2,9.2,80,0.00,OVC,FEW,0.01,0.0,WeatherDisplay:10.37,2013-04-05 15:15:00,
2013-04-05 17:20:00,60.8,54.9,29.73,West,266,9.0,9.0,81,0.00,OVC,FEW,0.01,0.0,WeatherDisplay:10.37,2013-04-05 15:20:00,
2013-04-05 17:26:00,60.1,54.6,29.73,West,263,8.1,8.1,82,0.00,OVC,FEW,0.01,0.0,WeatherDisplay:10.37,2013-04-05 15:26:00,
2013-04-05 17:31:00,59.5,54.3,29.73,West,263,6.9,6.9,83,0.00,OVC,FEW,0.01,0.0,WeatherDisplay:10.37,2013-04-05 15:31:00,
2013-04-05 17:37:00,59.1,53.9,29.73,WSW,256,6.9,6.9,83,0.00,OVC,FEW,0.01,0.0,WeatherDisplay:10.37,2013-04-05 15:37:00,
2013-04-05 17:42:00,59.1,54.3,29.73,West,261,6.9,6.9,84,0.00,OVC,FEW,0.01,0.0,WeatherDisplay:10.37,2013-04-05 15:42:00,
2013-04-05 17:47:00,59.1,54.6,29.73,West,275,4.6,4.6,85,0.00,OVC,FEW,0.01,0.0,WeatherDisplay:10.37,2013-04-05 15:47:00,
2013-04-05 17:52:00,59.0,54.5,29.73,WSW,249,6.9,6.9,85,0.00,OVC,FEW,0.01,0.0,WeatherDisplay:10.37,2013-04-05 15:52:00,
2013-04-05 17:57:00,58.8,54.0,29.74,WSW,246,5.8,5.8,84,0.00,OVC,FEW,0.01,0.0,WeatherDisplay:10.37,2013-04-05 15:57:00,
2013-04-05 18:02:00,58.5,54.0,29.74,West,263,8.1,8.1,85,0.00,OVC,FEW,0.01,0.0,WeatherDisplay:10.37,2013-04-05 16:02:00,
2013-04-05 18:07:00,58.6,54.1,29.74,WSW,254,3.5,3.5,85,0.00,OVC,FEW,0.01,0.0,WeatherDisplay:10.37,2013-04-05 16:07:00,
2013-04-05 18:12:00,58.4,54.2,29.74,West,268,5.8,5.8,86,0.00,OVC,FEW,0.01,0.0,WeatherDisplay:10.37,2013-04-05 16:12:00,
2013-04-05 18:17:00,58.3,54.1,29.74,West,274,4.6,4.6,86,0.00,OVC,FEW,0.01,0.0,WeatherDisplay:10.37,2013-04-05 16:17:00,
2013-04-05 18:22:00,58.3,54.1,29.74,West,275,3.5,3.5,86,0.00,OVC,FEW,0.01,0.0,WeatherDisplay:10.37,2013-04-05 16:22:00,
2013-04-05 18:27:00,58.0,53.8,29.74,West,275,3.5,3.5,86,0.00,OVC,FEW,0.01,0.0,WeatherDisplay:10.37,2013-04-05 16:27:00,
2013-04-05 18:32:00,57.9,53.7,29.74,SW,225,5.0,5.0,86,0.00,OVC,FEW,0.01,0.0,WeatherDisplay:10.37,2013-04-05 16:32:00,
2013-04-05 18:37:00,57.7,53.5,29.74,West,259,4.6,4.6,86,0.00,OVC,FEW,0.01,0.0,WeatherDisplay:10.37,2013-04-05 16:37:00,
2013-04-05 18:42:00,57.6,53.8,29.75,West,272,3.5,3.5,87,0.00,OVC,FEW,0.01,0.0,WeatherDisplay:10.37,2013-04-05 16:42:00,
2013-04-05 18:47:00,57.4,53.2,29.74,West,263,3.5,3.5,86,0.00,OVC,FEW,0.01,0.0,WeatherDisplay:10.37,2013-04-05 16:47:00,
2013-04-05 18:52:00,57.2,53.0,29.74,West,263,3.5,3.5,86,0.00,OVC,FEW,0.01,0.0,WeatherDisplay:10.37,2013-04-05 16:52:00,
2013-04-05 18:57:00,57.2,53.0,29.74,West,263,3.5,3.5,86,0.00,OVC,FEW,0.01,0.0,WeatherDisplay:10.37,2013-04-05 16:57:00,
2013-04-05 19:02:00,57.1,53.0,29.75,West,263,4.6,4.6,86,0.00,OVC,FEW,0.01,0.0,WeatherDisplay:10.37,2013-04-05 17:02:00,
2013-04-05 19:08:00,57.0,53.2,29.75,WSW,249,8.1,8.1,87,0.00,OVC,FEW,0.01,0.0,WeatherDisplay:10.37,2013-04-05 17:08:00,
2013-04-05 19:13:00,57.0,53.2,29.75,WSW,246,3.5,3.5,87,0.00,OVC,FEW,0.01,0.0,WeatherDisplay:10.37,2013-04-05 17:13:00,
2013-04-05 19:18:00,56.9,53.1,29.75,WSW,251,6.9,6.9,87,0.00,OVC,FEW,0.01,0.0,WeatherDisplay:10.37,2013-04-05 17:18:00,
2013-04-05 19:24:00,56.6,53.1,29.76,West,261,3.5,3.5,88,0.00,OVC,FEW,0.01,0.0,WeatherDisplay:10.37,2013-04-05 17:24:00,
2013-04-05 19:30:00,56.5,53.0,29.76,WSW,239,4.0,4.0,88,0.00,OVC,FEW,0.01,0.0,WeatherDisplay:10.37,2013-04-05 17:30:00,
2013-04-05 19:35:00,56.3,52.8,29.75,SW,232,4.6,4.6,88,0.00,OVC,FEW,0.01,0.0,WeatherDisplay:10.37,2013-04-05 17:35:00,
2013-04-05 19:40:00,56.1,52.9,29.75,SW,220,3.5,3.5,89,0.00,OVC,FEW,0.01,0.0,WeatherDisplay:10.37,2013-04-05 17:40:00,
2013-04-05 19:45:00,55.8,52.6,29.76,SW,218,3.5,3.5,89,0.00,OVC,FEW,0.01,0.0,WeatherDisplay:10.37,2013-04-05 17:45:00,
2013-04-05 19:50:00,55.6,52.4,29.76,SW,214,4.6,4.6,89,0.00,OVC,FEW,0.01,0.0,WeatherDisplay:10.37,2013-04-05 17:50:00,
2013-04-05 19:55:00,55.3,52.1,29.76,South,190,4.6,4.6,89,0.00,OVC,FEW,0.01,0.0,WeatherDisplay:10.37,2013-04-05 17:55:00,
2013-04-05 20:00:00,55.1,51.9,29.76,SSW,193,4.0,4.0,89,0.00,OVC,FEW,0.01,0.0,WeatherDisplay:10.37,2013-04-05 18:00:00,
2013-04-05 20:05:00,54.9,52.0,29.76,SSW,194,4.6,4.6,90,0.00,CLR,FEW,0.01,0.0,WeatherDisplay:10.37,2013-04-05 18:05:00,
2013-04-05 20:10:00,54.7,51.8,29.77,South,191,4.6,4.6,90,0.00,CLR,FEW,0.01,0.0,WeatherDisplay:10.37,2013-04-05 18:10:00,
2013-04-05 20:15:00,54.5,51.6,29.77,SSW,202,4.0,4.0,90,0.00,CLR,FEW,0.01,0.0,WeatherDisplay:10.37,2013-04-05 18:15:00,
2013-04-05 20:20:00,54.4,51.5,29.77,SSW,202,4.6,4.6,90,0.00,CLR,FEW,0.01,0.0,WeatherDisplay:10.37,2013-04-05 18:20:00,
2013-04-05 20:25:00,54.4,51.5,29.77,SSW,202,3.5,3.5,90,0.00,CLR,FEW,0.01,0.0,WeatherDisplay:10.37,2013-04-05 18:25:00,
2013-04-05 20:30:00,54.4,51.5,29.78,SSW,202,3.5,3.5,90,0.00,CLR,FEW,0.01,0.0,WeatherDisplay:10.37,2013-04-05 18:30:00,
2013-04-05 20:35:00,54.4,51.8,29.78,SSW,202,3.5,3.5,91,0.00,CLR,FEW,0.01,0.0,WeatherDisplay:10.37,2013-04-05 18:35:00,
2013-04-05 20:40:00,54.4,51.8,29.78,SSW,202,4.6,4.6,91,0.00,CLR,FEW,0.01,0.0,WeatherDisplay:10.37,2013-04-05 18:40:00,
2013-04-05 20:45:00,54.3,51.7,29.78,SSW,202,3.5,3.6,91,0.00,CLR,FEW,0.01,0.0,WeatherDisplay:10.37,2013-04-05 18:45:00,
2013-04-05 20:50:00,54.3,51.7,29.79,SSW,201,3.5,3.5,91,0.00,CLR,FEW,0.01,0.0,WeatherDisplay:10.37,2013-04-05 18:50:00,
2013-04-05 20:55:00,54.1,51.5,29.79,SSW,204,5.0,5.0,91,0.00,CLR,FEW,0.01,0.0,WeatherDisplay:10.37,2013-04-05 18:55:00,
2013-04-05 21:00:00,54.0,51.4,29.79,South,178,5.8,5.8,91,0.00,CLR,FEW,0.01,0.0,WeatherDisplay:10.37,2013-04-05 19:00:00,
2013-04-05 21:06:00,53.7,51.1,29.80,South,178,3.5,3.5,91,0.00,CLR,FEW,0.01,0.0,WeatherDisplay:10.37,2013-04-05 19:06:00,
2013-04-05 21:11:00,53.2,50.6,29.80,South,178,4.0,4.0,91,0.00,CLR,FEW,0.01,0.0,WeatherDisplay:10.37,2013-04-05 19:11:00,
2013-04-05 21:16:00,52.8,50.0,29.80,South,178,0.0,0.0,90,0.00,CLR,FEW,0.01,0.0,WeatherDisplay:10.37,2013-04-05 19:16:00,
2013-04-05 21:21:00,52.2,49.4,29.80,South,178,4.0,4.0,90,0.00,CLR,FEW,0.01,0.0,WeatherDisplay:10.37,2013-04-05 19:21:00,
2013-04-05 21:26:00,51.8,49.0,29.80,South,178,4.6,4.6,90,0.00,CLR,FEW,0.01,0.0,WeatherDisplay:10.37,2013-04-05 19:26:00,
2013-04-05 21:31:00,51.7,48.9,29.81,South,178,5.0,5.0,90,0.00,CLR,FEW,0.01,0.0,WeatherDisplay:10.37,2013-04-05 19:31:00,
2013-04-05 21:36:00,51.9,48.8,29.81,South,178,4.6,4.6,89,0.00,CLR,FEW,0.01,0.0,WeatherDisplay:10.37,2013-04-05 19:36:00,
2013-04-05 21:41:00,52.1,48.7,29.81,South,178,4.6,4.6,88,0.00,CLR,FEW,0.01,0.0,WeatherDisplay:10.37,2013-04-05 19:41:00,
2013-04-05 21:46:00,52.3,48.9,29.81,South,178,2.3,2.3,88,0.00,CLR,FEW,0.01,0.0,WeatherDisplay:10.37,2013-04-05 19:46:00,
2013-04-05 21:51:00,52.5,49.0,29.81,South,178,1.2,1.2,88,0.00,CLR,FEW,0.01,0.0,WeatherDisplay:10.37,2013-04-05 19:51:00,
2013-04-05 21:56:00,52.7,48.9,29.81,South,178,3.5,3.5,87,0.00,CLR,FEW,0.01,0.0,WeatherDisplay:10.37,2013-04-05 19:56:00,
2013-04-05 22:01:00,52.9,49.1,29.81,South,178,3.5,3.5,87,0.00,CLR,FEW,0.01,0.0,WeatherDisplay:10.37,2013-04-05 20:01:00,
2013-04-05 22:06:00,53.0,49.2,29.81,South,178,5.0,5.0,87,0.00,CLR,FEW,0.01,0.0,WeatherDisplay:10.37,2013-04-05 20:06:00,
2013-04-05 22:11:00,53.1,49.0,29.81,SSE,158,4.6,4.6,86,0.00,CLR,FEW,0.01,0.0,WeatherDisplay:10.37,2013-04-05 20:11:00,
2013-04-05 22:17:00,53.1,49.0,29.81,SSE,157,6.0,6.0,86,0.00,CLR,FEW,0.01,0.0,WeatherDisplay:10.37,2013-04-05 20:17:00,
2013-04-05 22:22:00,53.2,48.8,29.81,SE,146,3.5,3.5,85,0.00,CLR,FEW,0.01,0.0,WeatherDisplay:10.37,2013-04-05 20:22:00,
2013-04-05 22:27:00,53.2,48.8,29.82,SSE,147,4.6,4.6,85,0.00,CLR,FEW,0.01,0.0,WeatherDisplay:10.37,2013-04-05 20:27:00,
2013-04-05 22:32:00,53.2,48.8,29.81,SSE,147,5.8,5.8,85,0.00,CLR,FEW,0.01,0.0,WeatherDisplay:10.37,2013-04-05 20:32:00,
2013-04-05 22:37:00,53.3,48.6,29.81,SSE,160,6.9,6.9,84,0.00,CLR,FEW,0.01,0.0,WeatherDisplay:10.37,2013-04-05 20:37:00,
2013-04-05 22:42:00,53.7,49.6,29.81,South,177,6.9,6.9,86,0.00,CLR,FEW,0.01,0.0,WeatherDisplay:10.37,2013-04-05 20:42:00,
2013-04-05 22:47:00,54.1,50.0,29.81,SE,146,8.1,8.1,86,0.00,CLR,FEW,0.01,0.0,WeatherDisplay:10.37,2013-04-05 20:47:00,
2013-04-05 22:52:00,54.2,50.4,29.81,SSE,155,11.5,11.5,87,0.00,CLR,FEW,0.01,0.0,WeatherDisplay:10.37,2013-04-05 20:52:00,
2013-04-05 22:57:00,54.2,50.4,29.81,South,177,11.5,11.5,87,0.00,CLR,FEW,0.01,0.0,WeatherDisplay:10.37,2013-04-05 20:57:00,
2013-04-05 23:02:00,54.1,50.3,29.81,South,173,9.2,9.2,87,0.00,CLR,FEW,0.01,0.0,WeatherDisplay:10.37,2013-04-05 21:02:00,
2013-04-05 23:07:00,54.2,50.7,29.81,South,178,12.7,12.7,88,0.00,CLR,FEW,0.01,0.0,WeatherDisplay:10.37,2013-04-05 21:07:00,
2013-04-05 23:12:00,54.2,50.7,29.81,SSE,151,7.0,7.0,88,0.00,CLR,FEW,0.01,0.0,WeatherDisplay:10.37,2013-04-05 21:12:00,
2013-04-05 23:17:00,54.1,50.6,29.81,SSE,157,12.7,12.7,88,0.00,CLR,FEW,0.01,0.0,WeatherDisplay:10.37,2013-04-05 21:17:00,
2013-04-05 23:22:00,54.1,50.9,29.81,SE,136,9.2,9.2,89,0.00,CLR,FEW,0.01,0.0,WeatherDisplay:10.37,2013-04-05 21:22:00,
2013-04-05 23:27:00,54.0,50.8,29.81,SSE,150,10.4,10.4,89,0.00,CLR,FEW,0.01,0.0,WeatherDisplay:10.37,2013-04-05 21:27:00,
2013-04-05 23:32:00,54.0,50.8,29.81,South,170,9.2,9.2,89,0.00,CLR,FEW,0.01,0.0,WeatherDisplay:10.37,2013-04-05 21:32:00,
2013-04-05 23:37:00,54.1,51.8,29.81,SSE,165,11.5,11.5,92,0.00,CLR,FEW,0.01,0.0,WeatherDisplay:10.37,2013-04-05 21:37:00,
2013-04-05 23:42:00,54.1,50.9,29.81,SE,125,10.4,10.4,89,0.00,CLR,FEW,0.01,0.0,WeatherDisplay:10.37,2013-04-05 21:42:00,
2013-04-05 23:47:00,53.8,50.3,29.81,SSE,161,9.2,9.2,88,0.00,CLR,FEW,0.01,0.0,WeatherDisplay:10.37,2013-04-05 21:47:00,
2013-04-05 23:52:00,53.8,50.6,29.81,SSE,163,8.1,8.1,89,0.00,CLR,FEW,0.01,0.0,WeatherDisplay:10.37,2013-04-05 21:52:00,
2013-04-05 23:57:00,53.8,50.6,29.81,ESE,119,11.5,11.5,89,0.00,CLR,FEW,0.01,0.0,WeatherDisplay:10.37,2013-04-05 21:57:00,